Weather in Pinzolo

Italy     46°09′40″N   10°45′55″E
temp.,
°C
wind,
m/s
gust,
m/s
humid.,
%
clouds,
%
prec.,
mm/h
press.,
hPa
HPBL,
m
6 march, sat
sat601:00−6n128024 0.1 102621
04:00−6nw118293 0.0 102721
07:00−7e018685 0.0 102921
10:00−3se217731 0.0 1029423
13:00−2sse228461 0.1 1028411
16:00−2sse2293100 0.4 1028243
19:00−4sse1197100 0.7 102982
22:00−4se0093100 0.1 1030127
7 march, sun
sun701:00−5sw019192 0.1 103059
04:00−7wnw118916 0.0 102822
07:00−7wnw11778 0.0 102821
10:00−2se11590 0.0 1025379
13:000sse11561 0.0 1023916
16:000se116744 0.0 1021778
19:00−4wsw119142 0.1 102221
22:00−4nnw11828 0.0 102221
8 march, mon
mon801:00−5nw11785 0.0 102121
04:00−5nw11740 0.0 102021
07:00−6nnw11710 0.0 102021
10:00−1e11600 0.0 1019399
13:00+1ese21570 0.0 10181100
16:000se216993 0.3 1016674
19:00−3wsw019390 0.6 101856
22:00−4nne119395 0.1 101952
9 march, tue
tue901:00−4sw019697 0.4 101972
04:00−5ssw119693 0.1 101948
07:00−5sw019594 0.3 101976
10:00−3se118779 0.2 1018366
13:00−1se117985 0.5 1018517
16:00−1ese117577 0.8 1017480
19:00−4nnw227862 1.1 102047
22:00−5nnw22710 0.0 102258
10 march, wed
wed1001:00−6nnw11676 0.0 102335
04:00−6nw11620 0.0 102321
07:00−7wnw11600 0.0 102421
10:00−1se01450 0.0 1023411
13:00+1s224614 0.0 1022905
16:00+1s115025 0.0 1021738
19:00−3wnw117319 0.0 102223
22:00−3wnw116393 0.0 102422